Find Starlink 30973

NORAD ID: 58713 Int'l Des: 2024-002 Owner: SPXS Country: US Constellation: starlink operational
LEOCIRCULAR

現在のビュー

3D地球を読み込み中...

About Starlink 30973

Starlink 30973 (NORAD 58713) is a starlink constellation satellite (v2 mini) launched Jan 3, 2024 by SPXS of US. It operates in LEO, CIRCULAR orbit with a mass of 730.00 kg.

次回通過

Passes for default location (London). Set your location on the main map for personalized predictions.

高度履歴

Loading altitude history...

軌道要素

1 58713U 24002J 26238.04038106 -.00000092 00000-0 84235-5 0 9994
2 58713 53.1606 162.6144 0001688 108.6658 251.4528 15.34386310147955
Epoch: Aug 26, 2026 • Age: 8 hours

現在のステータス

高度 466.8 km
遠地点 / 近地点 N/A
速度 7.63 km/s
衛星直下点 -12.62°S, 46.13°E
打ち上げ日 Jan 3, 2024
運用期間 2.6 years
タイプ internet

技術仕様

分類 Payload
質量 730.00 kg
乾燥質量 700.00 kg
総質量 730.00 kg
長さ 0.30 m
直径 4.10 m
スパン 29.00 m
形状 Box + pan
製造者 SPXS
バスタイプ Starlink V2M
フェーズステータス In Orbit
所有者/国 SPXS/US

Most Searched